Volver al catálogo

GO-32

TECHSAT 1B

ActivoRadioaficionadoSSO
NORAD 25397·PAYLOAD·🇮🇱 Israel

Lanzado Jul 10, 1998 desde Baikonur Cosmodrome

Loading…

Próximos Pases (próximas 24 horas)

TLE

ActualizadoSource: Space-Track

Época: Sep 14, 2026, 09:54 UTC

1 25397U 98043D   26257.41299807  .00000025  00000-0  30886-4 0  9998
2 25397  99.0152 252.4556 0001057  13.7115 346.4091 14.24442711464038

Sigue GO-32 en tiempo real con AllMySat

Download on the App Store